Location: Curupao
(10.4996°N, 66.6442°W)
Time: 20:26:03
(UTC+00:00)

Cosmos 2263 Rocket - Pass Details

Date: 23 May 2024
Orbit: 824 x 846 km, 71.0° (Epoch: 22 June)

Event Time Altitude Azimuth Distance (km) Brightness Sun altitude
Exits shadow 08:52:21 - 183° (S) 3,389 5.1 -16.9°
Reaches altitude 10° 08:54:53 10° 177° (S) 2,455 4.4 -16.4°
Maximum altitude 09:00:15 46° 105° (ESE) 1,113 3.2 -15.2°
Drops below altitude 10° 09:05:35 10° 32° (NNE) 2,442 5.5 -14.0°
Sets 09:08:06 0° 27° (NNE) 3,372 6.2 -13.4°
